カタログに戻る

FENGYUN 1C DEB

運用中SSO
NORAD 30058·DEBRIS·🇨🇳 China

打ち上げ May 10, 1999 から Taiyuan Satellite Launch Center

Loading…

次のパス (今後24時間)

TLE

最新Source: Space-Track

元期: Sep 13, 2026, 22:45 UTC

1 30058U 99025PK  26256.94849803  .00000369  00000-0  48829-3 0  9999
2 30058  99.6554 257.3878 0314327 188.7322 200.2818 13.48571158965573

AllMySatでFENGYUN 1C DEBをリアルタイム追跡

Download on the App Store